Location: Casteide
(43.3833°N, 0.0167°W)
Time: 01:04:59
(UTC+00:00)

Daily predictions for brighter satellites

Satellite Brightness Start Highest point End
(mag) Time Altitude Azimuth Time Altitude Azimuth Time Altitude Azimuth
Cosmos 2237 Rocket 4.1 03:43:06 25° ENE 03:43:06 25° ENE 03:45:57 10° NE
BREEZE-M DEB (TANK) 4.4 03:55:50 68° NNE 03:55:50 68° NNE 04:00:42 10° E
Lacrosse 4 Rocket 4.2 04:04:26 16° ENE 04:04:26 16° ENE 04:05:49 10° ENE
Gbstr 26 Del rocket 4.4 04:13:50 77° ESE 04:13:50 77° ESE 04:21:38 10° ENE
Cosmos 1464 Rocket 4.4 04:13:46 57° ESE 04:14:06 57° E 04:20:08 10° NNE
FALCON 9 R/B 4.1 04:24:54 16° S 04:24:54 16° S 04:26:02 10° SSE
Atlas Centaur 2 3.9 04:26:51 29° S 04:26:52 29° S 04:33:24 10° SE
ATLAS CENTAUR R/B 3.9 04:31:45 15° NE 04:31:45 15° NE 04:32:35 10° NE
METEOR-M 4.3 04:29:23 10° NNE 04:34:34 67° E 04:34:34 67° E
Lacrosse 5 rocket 3.9 04:40:11 13° SE 04:40:11 13° SE 04:40:34 10° SE
Cosmos 372 Rocket 4.2 04:40:33 66° ENE 04:40:38 66° ENE 04:45:49 10° SSE
USA 307 4.2 04:44:43 38° ENE 04:44:43 38° ENE 04:47:27 10° ENE
USA 215 4.0 04:37:28 10° NE 04:43:15 36° NNW 04:43:15 36° NNW
NOSS 0 Rocket 4.2 04:45:41 51° NNW 04:45:41 51° NNW 04:50:34 10° NNE
ADEOS 3.8 04:39:55 10° NNE 04:45:08 68° ESE 04:47:41 30° S
USA 305 3.9 04:50:49 44° ENE 04:50:49 44° ENE 04:53:46 10° NE
Nadezhda 4 Rocket 4.0 04:43:25 10° N 04:49:33 74° E 04:55:39 10° SSE
USA 308 3.7 04:53:18 49° ENE 04:53:18 49° ENE 04:56:30 10° NE
Cosmos 1400 Rocket 3.6 04:53:19 52° E 04:53:19 52° E 04:57:09 10° NNE
SL-4 R/B 3.3 04:55:30 32° NE 04:55:30 32° NE 04:57:49 10° NE
Cosmos 2034 Rocket 4.0 04:49:15 10° S 04:55:37 85° E 05:02:00 10° N
Cosmos 1943 Rocket 3.8 04:51:10 11° N 04:56:02 31° NE 05:01:00 10° ESE
Meteor 1-16 Rocket 4.4 04:50:42 10° S 04:56:35 76° E 05:02:31 10° NNE
Cosmos 1570 Rocket 4.0 04:57:36 64° NNW 04:57:36 64° NNW 05:02:10 10° NNE
Cosmos 540 Rocket 4.4 05:01:40 33° N 05:01:40 33° N 05:04:43 10° NNE
CZ-4B R/B 3.9 04:56:39 10° SSE 04:57:25 16° SSE 04:57:25 16° SSE
USA 306 3.3 05:02:36 57° NE 05:02:36 57° NE 05:06:02 10° NE
SJ-12 4.1 04:59:11 10° NNE 05:03:20 70° ESE 05:04:11 52° SSE
NOSS 3-2 (A) 3.5 05:00:28 30° SSW 05:03:22 71° ESE 05:09:42 10° NE
Cosmos 1814 Rocket 3.8 05:03:50 71° NW 05:03:50 71° NW 05:08:43 10° NNE
Cosmos 2369 Rocket 4.3 05:01:51 10° N 05:06:15 23° NE 05:10:37 10° ESE
COSMO-SKYMED 1 2.6 05:06:34 10° SSE 05:10:54 80° ENE 05:12:33 38° N
CZ-4B R/B 3.4 05:08:46 10° NNE 05:12:22 52° E 05:16:06 10° S
CZ-4B R/B 4.2 05:09:49 10° N 05:13:34 57° NNW 05:13:34 57° NNW
USA 267 4.0 05:10:33 10° S 05:16:16 32° SW 05:16:23 32° SW
Cosmos 2278 Rocket 3.3 05:18:36 26° SW 05:18:36 26° SW 05:21:37 10° SSW
SL-16 R/B 2.4 05:11:01 10° SSW 05:16:37 73° ESE 05:22:18 10° NNE
NOSS 3-2 (C) 4.0 05:11:43 10° SSW 05:17:05 53° ESE 05:23:10 10° NE
CZ-2C R/B 2.9 05:19:17 24° SSW 05:19:29 24° S 05:22:53 10° SE
Cosmos 972 Rocket 4.4 05:14:48 10° S 05:21:09 79° ESE 05:26:50 10° NNE
Cosmos 2219 Rocket 4.2 05:23:36 13° NNW 05:23:36 13° NNW 05:24:43 10° N
ERS-2 2.3 05:20:02 10° SSE 05:23:38 72° ENE 05:25:10 33° N
CENTAUR R/B 2.8 05:18:34 10° SSW 05:24:15 64° ESE 05:31:01 10° NE
Cosmos 2237 Rocket 2.7 05:24:59 37° NW 05:24:59 37° NW 05:30:08 10° N
Cosmos 2208 Rocket 4.1 05:23:25 41° WSW 05:24:53 54° WNW 05:30:12 10° NNE
ATLAS 5 CENTAUR R/B 2.5 05:25:47 36° SSW 05:25:47 36° SSW 05:29:59 10° SSE
Cosmos 2026 Rocket 4.4 05:18:56 10° N 05:25:17 67° E 05:31:37 10° SSE
H-2A R/B 3.0 05:25:40 10° NNE 05:29:22 65° E 05:33:06 10° S
FALCON 9 DEB 3.4 05:30:00 51° S 05:30:20 54° SE 05:33:25 10° ENE
Meteor PRIRODA 3.4 05:30:25 10° NNE 05:34:03 87° WNW 05:37:41 10° SSW
Cosmos 1626 Rocket 3.9 05:37:41 41° WNW 05:38:08 42° W 05:42:20 10° SSW
Cosmos 1703 3.7 05:39:02 41° WSW 05:39:02 41° WSW 05:42:14 10° SSW
FALCON 9 DEB 2.9 05:38:25 62° SSW 05:38:49 77° SE 05:41:55 10° ENE
Lacrosse 4 Rocket 1.9 05:40:48 38° WNW 05:40:54 38° NW 05:44:59 10° NNE
Cosmos 1300 2.7 05:40:49 10° S 05:44:36 78° E 05:48:25 10° N
Meteor 1-11 4.1 05:40:27 10° NNW 05:46:04 84° W 05:51:39 10° S
SAR-Lupe-4 3.4 05:43:40 10° S 05:47:14 78° WSW 05:50:19 14° NNW
Cosmos 1315 Rocket 2.9 05:45:15 10° S 05:49:08 76° E 05:53:03 10° NNE
[s.n.47389] 4.1 05:48:24 17° SSW 05:49:54 31° SE 05:52:14 10° ENE
[s.n.47399] 4.1 05:48:25 17° SSW 05:49:55 31° SE 05:52:16 10° ENE
[s.n.47393] 4.1 05:48:27 17° SSW 05:49:58 31° SE 05:52:18 10° ENE
[s.n.47353] 4.1 05:48:32 17° SSW 05:50:02 31° SE 05:52:23 10° ENE
[s.n.47355] 4.1 05:48:35 17° SSW 05:50:05 31° SE 05:52:27 10° ENE
[s.n.47365] 4.1 05:48:37 17° SSW 05:50:08 31° SE 05:52:30 10° ENE
[s.n.47383] 4.1 05:48:43 17° SSW 05:50:13 31° SE 05:52:35 10° ENE
[s.n.47400] 4.1 05:48:40 17° SSW 05:50:14 32° SE 05:52:39 10° ENE
[s.n.47378] 4.1 05:48:48 17° SSW 05:50:19 32° SE 05:52:41 10° ENE
[s.n.47395] 4.1 05:48:51 17° SSW 05:50:21 32° SE 05:52:43 10° ENE
[s.n.47379] 4.1 05:48:57 17° SSW 05:50:28 32° SE 05:52:50 10° ENE
[s.n.47370] 4.1 05:48:57 17° SSW 05:50:28 32° SE 05:52:50 10° ENE
[s.n.47351] 4.1 05:48:57 17° SSW 05:50:31 32° SE 05:52:56 10° ENE
[s.n.47394] 4.1 05:49:02 17° SSW 05:50:34 32° SE 05:52:57 10° ENE
[s.n.47354] 4.1 05:49:07 17° SSW 05:50:38 32° SE 05:53:01 10° ENE
[s.n.47360] 4.1 05:49:08 17° SSW 05:50:40 32° SE 05:53:02 10° ENE
[s.n.47369] 4.1 05:49:13 17° SSW 05:50:46 32° SE 05:53:08 10° ENE
[s.n.47406] 4.1 05:49:15 17° SSW 05:50:48 32° SE 05:53:10 10° ENE
[s.n.47384] 4.1 05:49:18 17° SSW 05:50:51 32° SE 05:53:14 10° ENE
[s.n.47356] 4.1 05:49:21 17° SSW 05:50:53 32° SE 05:53:17 10° ENE
[s.n.47407] 4.1 05:49:24 17° SSW 05:50:57 32° SE 05:53:20 10° ENE
[s.n.47385] 4.1 05:49:22 16° SSW 05:50:59 33° SE 05:53:25 10° ENE
[s.n.47358] 4.1 05:49:32 17° SSW 05:51:05 32° SE 05:53:27 10° ENE
[s.n.47398] 4.1 05:49:33 17° SSW 05:51:06 32° SE 05:53:30 10° ENE
[s.n.47361] 4.1 05:49:37 17° SSW 05:51:11 32° SE 05:53:34 10° ENE
[s.n.47392] 4.1 05:49:39 17° SSW 05:51:13 32° SE 05:53:35 10° ENE
[s.n.47382] 4.1 05:49:43 17° SSW 05:51:16 32° SE 05:53:38 10° ENE
[s.n.47359] 4.1 05:49:43 17° SSW 05:51:19 33° SE 05:53:43 10° ENE
[s.n.47401] 4.1 05:49:50 17° SSW 05:51:24 32° SE 05:53:46 10° ENE
[s.n.47380] 4.1 05:49:47 16° SSW 05:51:25 33° SE 05:53:50 10° ENE
[s.n.47386] 4.1 05:49:57 17° SSW 05:51:31 33° SE 05:53:53 10° ENE
[s.n.47408] 4.1 05:49:55 16° SSW 05:51:32 33° SE 05:53:58 10° ENE
[s.n.47396] 4.1 05:50:02 17° SSW 05:51:37 33° SE 05:53:59 10° ENE
[s.n.47391] 4.1 05:50:04 17° SSW 05:51:39 33° SE 05:54:02 10° ENE
[s.n.47402] 4.1 05:50:08 17° SSW 05:51:42 33° SE 05:54:05 10° ENE
[s.n.47404] 4.1 05:50:11 17° SSW 05:51:46 33° SE 05:54:08 10° ENE
deb Chang Zheng 4 3.7 05:47:44 10° N 05:51:48 47° WNW 05:55:50 10° SW
[s.n.47403] 4.0 05:50:14 17° SSW 05:51:49 33° SE 05:54:12 10° ENE
[s.n.47381] 4.0 05:50:17 17° SSW 05:51:52 33° SE 05:54:15 10° ENE
[s.n.47372] 4.0 05:50:21 17° SSW 05:51:56 33° SE 05:54:19 10° ENE
[s.n.47405] 4.0 05:50:23 17° SSW 05:51:58 33° SE 05:54:22 10° ENE
[s.n.47368] 4.0 05:50:28 17° SSW 05:52:04 33° SE 05:54:27 10° ENE
[s.n.47350] 4.0 05:50:30 17° SSW 05:52:06 33° SE 05:54:29 10° ENE
[s.n.47349] 4.0 05:50:27 16° SSW 05:52:07 34° SE 05:54:34 10° ENE
[s.n.47367] 4.0 05:50:34 16° SSW 05:52:10 33° SE 05:54:35 10° ENE
[s.n.47373] 4.0 05:50:34 16° SSW 05:52:14 34° SE 05:54:40 10° ENE
[s.n.47377] 4.0 05:50:37 16° SSW 05:52:18 34° SE 05:54:44 10° ENE
[s.n.47371] 4.0 05:50:40 16° SSW 05:52:20 34° SE 05:54:46 10° ENE
[s.n.47362] 4.0 05:50:42 16° SSW 05:52:23 34° SE 05:54:49 10° ENE
[s.n.47363] 4.0 05:50:46 16° SSW 05:52:26 34° SE 05:54:53 10° ENE
[s.n.47374] 4.0 05:50:52 16° SSW 05:52:30 34° SE 05:54:55 10° ENE
[s.n.47357] 4.0 05:50:57 16° SSW 05:52:34 34° SE 05:54:59 10° ENE
Cosmos 2195 Rocket 4.4 05:46:24 10° NNW 05:52:36 67° W 05:58:41 10° S
[s.n.47390] 4.0 05:51:01 17° SSW 05:52:37 34° SE 05:55:02 10° ENE
[s.n.47387] 4.0 05:51:03 16° SSW 05:52:40 34° SE 05:55:05 10° ENE
[s.n.47375] 4.0 05:51:04 17° SSW 05:52:41 34° SE 05:55:05 10° ENE
[s.n.47376] 4.0 05:51:02 16° SSW 05:52:43 34° SE 05:55:10 10° ENE
[s.n.47366] 4.0 05:51:12 16° SSW 05:52:50 34° SE 05:55:16 10° ENE
[s.n.47352] 4.0 05:51:15 16° SSW 05:52:54 34° SE 05:55:19 10° ENE
[s.n.47364] 4.0 05:51:18 16° SSW 05:52:57 34° SE 05:55:24 10° ENE
[s.n.47388] 4.0 05:51:21 16° SSW 05:53:01 34° SE 05:55:26 10° ENE
[s.n.47397] 4.0 05:51:28 16° SSW 05:53:05 34° SE 05:55:30 10° ENE
Cosmos 2297 3.7 05:50:12 12° NNW 05:55:32 64° WSW 06:01:12 10° S
MOS 1 Rocket 3.5 05:51:50 10° S 05:56:32 48° W 06:01:00 10° NNW
Cosmos 1346 Rocket 2.7 05:55:07 10° NNW 05:59:04 64° W 06:03:01 10° S
SKYMED 2 4.3 05:55:14 10° SSW 05:59:04 31° W 06:01:10 21° NW
USA 238 DEB 3.6 05:52:34 10° SW 05:59:05 64° NW 06:05:56 10° NNE
USA 238 3.6 05:52:40 10° SW 05:59:11 65° NW 06:06:03 10° NNE
Cosmos 836 Rocket 4.4 05:54:03 10° SSW 05:59:19 80° WNW 06:04:35 10° NNE
Cosmos 1428 Rocket 4.4 05:55:41 10° NNW 06:01:55 68° W 06:08:02 10° S
SAR-Lupe-1 4.3 06:00:10 10° S 06:03:37 47° W 06:07:00 11° NNW
Cosmos 1758 Rocket 3.6 05:59:35 10° NNW 06:04:00 56° W 06:08:20 10° S
Cosmos 1689 Rocket 2.4 06:03:11 10° S 06:05:57 41° W 06:07:24 22° NW
ATLAS CENTAUR R/B 2.5 06:07:56 20° NW 06:08:08 20° NW 06:10:54 10° N
BREEZE M DEB (TANK) 1.5 06:11:50 21° WSW 06:13:12 80° NNW 06:17:22 10° ENE
Atlas Centaur 2 4.5 06:09:52 10° WSW 06:15:32 23° SSW 06:21:44 10° SSE
SL-19 R/B 4.3 06:12:08 10° NNE 06:15:45 66° ESE 06:18:54 10° S
Cosmos 2084 Rocket 4.4 06:13:52 18° WNW 06:16:19 30° WSW 06:20:17 10° S
Cosmos 1726 Rocket 3.4 06:12:37 10° SSW 06:16:55 78° W 06:21:15 10° N
Cosmos 2058 Rocket 3.5 06:14:35 10° S 06:18:56 67° E 06:23:22 10° NNE
Cosmos 1892 3.2 06:15:43 10° N 06:19:32 62° E 06:23:21 10° SSE
YAOGAN 6 2.9 06:16:05 10° N 06:19:37 44° WNW 06:23:08 10° SW
Cosmos 1603 4.3 06:14:20 10° S 06:19:50 62° ESE 06:25:25 10° NNE
Spot 2 3.9 06:16:22 10° NNE 06:20:26 90° W 06:24:34 10° SSW
FALCON 9 DEB 3.3 06:19:09 18° W 06:21:08 42° NNW 06:24:06 10° NE
GEOS 3 Rocket 3.7 06:16:21 10° SSE 06:21:42 78° SW 06:27:08 10° NW
USA 307 3.9 06:20:53 16° WNW 06:23:33 30° NNW 06:27:17 10° NE
USA 215 4.5 06:19:55 10° NE 06:25:10 27° N 06:30:24 10° NW
Cosmos 2279 Rocket 4.0 06:22:42 10° SSW 06:28:54 66° W 06:35:10 10° N
CZ-4B DEB 4.2 06:24:20 10° N 06:29:53 71° WNW 06:35:23 10° SSW
USA 305 4.0 06:26:57 14° WNW 06:29:53 27° NNW 06:33:33 10° NE
FALCON 9 DEB 3.4 06:27:20 13° W 06:29:54 40° NNW 06:32:54 10° NE
In-Cosmos 22 Rocket 4.1 06:24:32 10° NNW 06:30:00 84° W 06:35:20 10° S
PSLV R/B 4.2 06:26:37 10° N 06:30:28 44° WNW 06:34:21 10° SW
Cosmos 2292 Rocket 2.8 06:28:35 10° NNW 06:31:39 71° W 06:35:15 10° S
USA 308 4.0 06:29:28 13° WNW 06:32:37 28° NNW 06:36:19 10° NE
Cosmos 1408 3.1 06:29:41 10° N 06:33:16 62° E 06:36:51 10° SSE
SL-4 R/B 3.1 06:31:05 13° WNW 06:33:58 27° N 06:37:34 10° NE
Cosmos 2098 Rocket 3.9 06:30:43 10° NNW 06:35:40 35° W 06:39:40 10° SSW
Okean O Rocket 1.8 06:31:27 10° NNE 06:35:49 75° ESE 06:40:08 10° S
Cosmos 1825 Rocket 4.2 06:32:26 10° NNW 06:36:30 35° W 06:40:32 10° SSW
SMAP 3.0 06:33:15 10° N 06:37:55 76° WNW 06:42:33 10° SSW
Cosmos 2263 4.4 06:33:29 10° NNW 06:39:11 80° ENE 06:44:54 10° SSE
Cosmos 1943 Rocket 2.6 06:34:34 10° NW 06:39:55 43° WSW 06:45:14 10° S
CZ-2C R/B 2.6 06:35:53 10° S 06:41:05 66° WSW 06:46:28 10° NNW
H-2A R/B 2.6 06:37:37 10° N 06:42:06 66° WNW 06:46:33 10° SSW
USA 306 4.2 06:38:44 10° WNW 06:42:15 25° NNW 06:45:48 10° NE
Cosmos 1939 Rocket 3.4 06:40:53 10° NNE 06:44:44 62° E 06:48:33 10° S
Envisat 3.6 06:41:55 10° N 06:46:27 33° WNW 06:50:58 10° SW
Cosmos 773 Rocket 4.0 06:42:37 10° SSW 06:47:52 89° WNW 06:53:07 10° NNE
Cosmos 2369 Rocket 2.3 06:45:11 10° NNW 06:50:42 61° WSW 06:56:11 10° S
Meteor 2-10 Rocket 3.8 06:47:23 10° SSW 06:53:11 71° WNW 06:58:56 10° N
Cosmos 2228 4.2 06:50:38 10° WSW 06:53:55 22° WNW 06:57:13 10° NNW
NOSS 3-2 (A) 4.4 06:49:52 10° W 06:54:52 28° NNW 07:00:32 10° NNE
